Regional Weather Roundup
Issued by NWS Boston, MA

Home | Current Version | Previous Version | Text Only | Print | Product List | Glossary On
Versions: 1 2 3 4 5 6 7 8 9 10 11 12 13 14 15 16 17 18 19 20 21 22 23 24 25 26 27
000
ASUS41 KBOX 191410
RWRBOX

REGIONAL WEATHER ROUNDUP
NATIONAL WEATHER SERVICE TAUNTON MA
1000 AM EDT THU OCT 19 2017

NOTE:  "FAIR" INDICATES FEW OR NO CLOUDS BELOW 12,000 FEET WITH NO
SIGNIFICANT WEATHER AND/OR OBSTRUCTIONS TO VISIBILITY.

MAZALL-191500-
EASTERN MASSACHUSETTS

CITY           SKY/WX    TMP DP  RH WIND       PRES   REMARKS
BOSTON         MOSUNNY   64  51  62 SW14      30.20F
BEVERLY        MOSUNNY   64  53  67 S7        30.19F
LAWRENCE       SUNNY     61  50  67 S7        30.21F
BEDFORD        MOSUNNY   62  48  60 SW13      30.19F
BLUE HILL        N/A     60  51  72 SW15      30.20F
NORWOOD        SUNNY     65  54  67 S7        30.21F
MARSHFIELD     SUNNY     64  57  77 S9G16     30.22F
PLYMOUTH       SUNNY     61  57  87 S8        30.24S
TAUNTON        SUNNY     65  57  75 SW7       30.23F
NEW BEDFORD    SUNNY     64  57  78 S12       30.23F
$$

MAZALL-191500-
CAPE COD AND THE ISLANDS

CITY           SKY/WX    TMP DP  RH WIND       PRES   REMARKS
FALMOUTH       SUNNY     64  59  82 SW14      30.25F
HYANNIS        SUNNY     65  60  84 SW15G21   30.23F
CHATHAM        SUNNY     65  62  90 SW8       30.26F
PROVINCETOWN   SUNNY     62  59  90 S14       30.24S
NANTUCKET      SUNNY     63  61  93 S15       30.27F
MARTHAS VNYRD  SUNNY     64  60  87 SW15      30.26S
$$

MAZALL-191500-
CENTRAL AND WESTERN MASSACHUSETTS

CITY           SKY/WX    TMP DP  RH WIND       PRES   REMARKS
WORCESTER      SUNNY     61  45  55 SW14      30.20F
FITCHBURG      SUNNY     64  51  62 VRB3      30.19F
ORANGE         PTSUNNY   49  49 100 CALM      30.19F FOG
SPRINGFIELD    MOSUNNY   53  53  99 S7        30.20F
WESTFIELD      MOSUNNY   56  49  77 S7        30.19F
NORTH ADAMS    SUNNY     58  47  66 E3        30.17F
PITTSFIELD     SUNNY     52  47  83 CALM      30.18F
$$

RIZALL-191500-
RHODE ISLAND

CITY           SKY/WX    TMP DP  RH WIND       PRES   REMARKS
PROVIDENCE     MOSUNNY   64  57  78 S10       30.24F
NEWPORT        SUNNY     64  57  78 S9        30.24F
BLOCK ISLAND   SUNNY     65  59  81 SW13      30.26F
SMITHFIELD     SUNNY     61  55  81 SW7       30.23F
WESTERLY       SUNNY     65  51  60 SW12      30.25F
$$

CTZALL-191500-
CONNECTICUT

CITY           SKY/WX    TMP DP  RH WIND       PRES   REMARKS
BRADLEY INTL   PTSUNNY   58  50  75 S8        30.21F
HARTFORD       SUNNY     61  50  67 S7        30.22F
BRIDGEPORT     SUNNY     62  52  69 SW7       30.24F
DANBURY        SUNNY     61  47  59 SW6       30.24F
GROTON         SUNNY     65  52  62 SW12      30.24F
NEW HAVEN      SUNNY     62  53  72 SW3       30.24F
CHESTER        FAIR      64  54  68 SW7       30.24S
MERIDEN        SUNNY     59  50  72 SE6       30.23F
WILLIMANTIC    SUNNY     50  48  93 CALM      30.24F
OXFORD         SUNNY     57  48  72 VRB3      30.24F
$$

MEZ002-015-021-024-NHZ003-005-008-011-012-014-VTZ005-008-191500-
NORTHERN NEW ENGLAND

CITY           SKY/WX    TMP DP  RH WIND       PRES   REMARKS
PORTLAND ME    MOSUNNY   58  48  69 S8        30.17S
BANGOR ME      MOSUNNY   60  52  74 S12       30.14F
CONCORD NH     CLOUDY    49  44  83 CALM      30.17F
MANCHESTER NH  MOSUNNY   54  48  80 S5        30.17F
NASHUA NH      SUNNY     57  49  74 CALM      30.19F
PORTSMOUTH NH  MOSUNNY   59  49  68 SW5       30.16F
JAFFREY NH     SUNNY     54  49  83 SW8       30.19F
KEENE NH       SUNNY     49  47  93 CALM      30.19F
BURLINGTON VT  MOSUNNY   62  45  53 S20G25    30.06S
MT. WASHINGTON MOSUNNY   41  30  65 W45         N/A  WCI  28
$$

NYZ052-076-191500-
EASTERN NEW YORK

CITY           SKY/WX    TMP DP  RH WIND       PRES   REMARKS
ALBANY         MOSUNNY   57  46  66 S12       30.17F
NEW YORK CITY  MOSUNNY   63  45  51 SW8       30.24F
$$

ANZALL-191500-
MARINE OBSERVATIONS

STATION/POSITION TIME  TEMP    WIND        PRES    VSBY  WAVE
                       AIR SEA DIR/SP/G                  HT/PER
                 (UTC) (F)     (DEG/KT/KT) (MB)    (MI)  (FT/S)
BOSTON BUOY      1350   58 58  180/ 12/ 14 1022.5F         1/ 3
BUZZARDS BAY     1300   62     220/ 14/ 16 1024.6F
NANTUCKET SOUND  1250   62 62  220/ 12/ 14 1024.8          1
MASS BAY-STELLWA 1304   59 59  190/ 14/ 16 1022.2F         2/ 3
ISLE OF SHOALS   1300   56     210/ 14/ 15 1022.1F
S OF BLOCK IS    NOT AVBL
$$

......................KEY.........................
  SKY/WX - SKY CONDITION/PRESENT WEATHER
  TMP    - TEMPERATURE IN FAHRENHEIT
  DWPT   - DEWPOINT IN FAHRENHEIT
  RH     - RELATIVE HUMIDITY IN PERCENT
  WIND   - DIRECTION AND SPEED IN MPH
  PRES   - MEAN SEA LEVEL PRESSURE IN INCHES OF HG
  WCI    - WIND CHILL INDEX
  VSB    - VISIBILITY IN MILES
  HX     - HEAT INDEX
  TC     - TEMPERATURE IN CELSIUS
  VRB    - VARIABLE WIND DIRECTION
  N/A    - NOT AVAILABLE




USA.gov is the U.S. government's official web portal to all federal, state and local government web resources and services.